Regional Weather Roundup
Issued by NWS

Home | Current Version | Previous Version | Graphics & Text | Print | Product List | Glossary On
Versions: 1 2 3 4 5 6 7 8 9 10 11 12 13 14 15 16 17 18 19 20 21 22 23 24 25 26 27 28 29 30 31 32 33 34 35 36 37 38 39 40 41 42 43 44 45 46 47 48 49 50
857
ASUS44 KJAN 191710
RWRMS

MISSISSIPPI HOURLY WEATHER ROUNDUP
NATIONAL WEATHER SERVICE JACKSON MS
1200 PM CDT SUN OCT 19 2014

NOTE: "FAIR: INDICATES FEW OR NO CLOUDS BELOW 12,000 FEET WITH NO
SIGNIFICANT WEATHER AND/OR OBSTRUCTIONS TO VISIBILITY.

MSZ001>002-007>008-010>013-018>021-025>028-034>036-191800-
NORTHWEST MISSISSIPPI

CITY           SKY/WX    TMP DP  RH WIND       PRES   REMARKS
CLARKSDALE     FAIR      64  46  52 NE7       30.22F
CLEVELAND      FAIR      64  47  54 NE8       30.20F
GREENWOOD      SUNNY     67  46  47 NE8       30.20F
GREENVILLE     SUNNY     67  46  47 NE8       30.20F
GRENADA          N/A    N/A N/A N/A MISG        N/A
OLIVE BRANCH   MOSUNNY   59  46  63 NE5       30.22F
OXFORD         FAIR      61  45  55 NE7       30.22F
TUNICA         SUNNY     63  46  55 N7        30.23S
$$

MSZ003>006-009-014>017-022>024-029>033-037>039-191800-
NORTHEAST MISSISSIPPI

CITY           SKY/WX    TMP DP  RH WIND       PRES   REMARKS
COLUMBUS AFB   SUNNY     64  44  48 VRB1      30.19F
CORINTH        FAIR      61  43  51 VRB3        N/A
GOLDN TRIANGLE SUNNY     64  45  48 E5        30.18F
TUPELO         SUNNY     63  44  50 NE6       30.20F
$$

MSZ040-058-191800-
CENTRAL MISSISSIPPI

CITY           SKY/WX    TMP DP  RH WIND       PRES   REMARKS
JACKSON INTL   SUNNY     68  45  43 N9        30.17F
JACKSON HAWKNS SUNNY     66  46  48 VRB5      30.18F
MERIDIAN KEY   SUNNY     66  45  46 N8        30.16F
MERIDIAN NAS   SUNNY     65  45  48 VRB3      30.17F
RAYMOND        FAIR      66  61  82 NE6       30.17F
VICKSBURG      SUNNY     66  47  50 E6        30.18F
$$

MSZ059>079-191800-
SOUTH MISSISSIPPI

CITY           SKY/WX    TMP DP  RH WIND       PRES   REMARKS
BROOKHAVEN     FAIR      64  46  52 N7        30.17F
HATTIESBURG    SUNNY     68  47  46 CALM      30.15F
MCCOMB         SUNNY     67  48  50 VRB5      30.15F
NATCHEZ        SUNNY     66  48  52 CALM      30.17S
PINE BELT      SUNNY     66  21  18 E10       30.16F
$$

MSZ080>082-191800-
COASTAL MISSISSIPPI

CITY           SKY/WX    TMP DP  RH WIND       PRES   REMARKS
BAY ST LOUIS   SUNNY     72  46  40 NE7       30.12F
BILOXI         SUNNY     71  51  50 N7        30.11F
PASCAGOULA     SUNNY     71  50  47 N6        30.11F
GULFPORT       SUNNY     71  50  47 N5        30.11F
$$



USA.gov is the U.S. government's official web portal to all federal, state and local government web resources and services.